| time (UTC) | temp F | wind direction | speed MPH | gust MPH | rain 1hr in | rain 24hr in | rain mn in | humidity % | barometer mb |
| 20260508104515 | 61 | 338 | 1.0 | 4.0 | 0.00 | 0.00 | 0.00 | 68 | 1015.8 |
| 20260508103516 | 62 | 338 | 1.0 | 3.0 | 0.00 | 0.00 | 0.00 | 68 | 1015.8 |
| 20260508102516 | 62 | 338 | 1.0 | 4.0 | 0.00 | 0.00 | 0.00 | 72 | 1016.1 |
| 20260508101515 | 61 | 0.0 | 3.0 | 0.00 | 0.00 | 0.00 | 72 | 1016.0 | |
| 20260508100516 | 61 | 0.0 | 2.0 | 0.00 | 0.00 | 0.00 | 73 | 1016.1 | |
| 20260508095516 | 60 | 0.0 | 2.0 | 0.00 | 0.00 | 0.00 | 76 | 1016.1 | |
| 20260508094536 | 60 | 338 | 1.0 | 5.0 | 0.00 | 0.00 | 0.00 | 72 | 1016.2 |
| 20260508093515 | 60 | 0.0 | 2.0 | 0.00 | 0.00 | 0.00 | 73 | 1016.4 | |
| 20260508092536 | 59 | 0.0 | 2.0 | 0.00 | 0.00 | 0.00 | 75 | 1016.2 | |
| 20260508091516 | 58 | 0.0 | 4.0 | 0.00 | 0.00 | 0.00 | 74 | 1016.2 | |
| 20260508090536 | 57 | 0.0 | 2.0 | 0.00 | 0.00 | 0.00 | 78 | 1016.3 | |
| 20260508085536 | 55 | 0.0 | 3.0 | 0.00 | 0.00 | 0.00 | 79 | 1016.2 | |
| 20260508084515 | 55 | 0.0 | 2.0 | 0.00 | 0.00 | 0.00 | 79 | 1016.2 | |
| 20260508083516 | 56 | 0.0 | 1.0 | 0.00 | 0.00 | 0.00 | 81 | 1016.1 | |
| 20260508082515 | 55 | 0.0 | 0.0 | 0.00 | 0.00 | 0.00 | 80 | 1016.2 | |
| 20260508081535 | 56 | 0.0 | 5.0 | 0.00 | 0.00 | 0.00 | 78 | 1016.1 | |
| 20260508080516 | 55 | 0.0 | 3.0 | 0.00 | 0.00 | 0.00 | 80 | 1016.1 | |
| 20260508075515 | 54 | 0.0 | 2.0 | 0.00 | 0.00 | 0.00 | 80 | 1016.1 | |
| 20260508074515 | 54 | 0.0 | 0.0 | 0.00 | 0.00 | 0.00 | 82 | 1016.1 | |
| 20260508073536 | 53 | 0.0 | 0.0 | 0.00 | 0.00 | 0.00 | 85 | 1016.1 | |
| 20260508072515 | 52 | 0.0 | 0.0 | 0.00 | 0.00 | 0.00 | 87 | 1016.1 | |
| 20260508071517 | 52 | 0.0 | 0.0 | 0.00 | 0.00 | 0.00 | 85 | 1015.9 | |
| 20260508070518 | 51 | 0.0 | 0.0 | 0.00 | 0.00 | 0.00 | 86 | 1016.0 | |
| 20260508065517 | 50 | 0.0 | 1.0 | 0.00 | 0.00 | 0.00 | 87 | 1015.9 | |
| 20260508064517 | 51 | 0.0 | 0.0 | 0.00 | 0.00 | 0.00 | 87 | 1015.9 | |
| 20260508063517 | 51 | 0.0 | 2.0 | 0.00 | 0.00 | 0.00 | 87 | 1015.7 | |
| 20260508062517 | 51 | 0.0 | 1.0 | 0.00 | 0.00 | 0.00 | 89 | 1015.9 | |
| 20260508061517 | 50 | 0.0 | 2.0 | 0.00 | 0.00 | 0.00 | 90 | 1015.7 | |
| 20260508060518 | 50 | 0.0 | 0.0 | 0.00 | 0.00 | 0.00 | 91 | 1015.6 | |
| 20260508055517 | 49 | 0.0 | 0.0 | 0.00 | 0.00 | 0.00 | 92 | 1015.6 | |
| 20260508054517 | 48 | 0.0 | 0.0 | 0.00 | 0.00 | 0.00 | 92 | 1015.5 | |
| 20260508053517 | 48 | 0.0 | 0.0 | 0.00 | 0.00 | 0.00 | 93 | 1015.7 | |
| 20260508052517 | 47 | 0.0 | 0.0 | 0.00 | 0.00 | 0.00 | 93 | 1015.5 | |
| 20260508051517 | 46 | 0.0 | 0.0 | 0.00 | 0.00 | 0.00 | 93 | 1015.3 | |
| 20260508050517 | 45 | 0.0 | 0.0 | 0.00 | 0.01 | 0.00 | 92 | 1015.2 | |
| 20260508045517 | 45 | 0.0 | 0.0 | 0.00 | 0.01 | 0.00 | 92 | 1015.0 | |
| 20260508044518 | 44 | 0.0 | 0.0 | 0.00 | 0.02 | 0.00 | 91 | 1014.9 | |
| 20260508043517 | 44 | 0.0 | 0.0 | 0.00 | 0.02 | 0.00 | 91 | 1014.8 | |
| 20260508042517 | 44 | 0.0 | 0.0 | 0.00 | 0.03 | 0.00 | 91 | 1014.7 | |
| 20260508041517 | 44 | 0.0 | 0.0 | 0.00 | 0.03 | 0.00 | 91 | 1014.7 | |
| 20260508040517 | 44 | 0.0 | 0.0 | 0.00 | 0.03 | 0.00 | 91 | 1014.7 | |
| 20260508035537 | 44 | 0.0 | 0.0 | 0.00 | 0.03 | 0.00 | 90 | 1014.7 | |
| 20260508034537 | 44 | 0.0 | 0.0 | 0.00 | 0.03 | 0.00 | 90 | 1014.8 | |
| 20260508033537 | 44 | 0.0 | 0.0 | 0.00 | 0.03 | 0.00 | 90 | 1014.7 | |
| 20260508032517 | 44 | 0.0 | 0.0 | 0.00 | 0.03 | 0.00 | 90 | 1014.7 | |
| 20260508031517 | 44 | 0.0 | 0.0 | 0.00 | 0.03 | 0.00 | 90 | 1014.6 | |
| 20260508030517 | 44 | 0.0 | 0.0 | 0.00 | 0.03 | 0.00 | 89 | 1014.7 | |
| 20260508025517 | 45 | 0.0 | 0.0 | 0.00 | 0.03 | 0.00 | 89 | 1014.7 | |
| 20260508024517 | 45 | 0.0 | 0.0 | 0.00 | 0.03 | 0.00 | 89 | 1014.6 | |
| 20260508023517 | 45 | 0.0 | 0.0 | 0.00 | 0.03 | 0.00 | 89 | 1014.6 | |
| 20260508022517 | 45 | 0.0 | 0.0 | 0.00 | 0.03 | 0.00 | 89 | 1014.6 | |
| 20260508021517 | 45 | 0.0 | 0.0 | 0.00 | 0.03 | 0.00 | 88 | 1014.5 | |
| 20260508020517 | 46 | 0.0 | 1.0 | 0.00 | 0.03 | 0.00 | 88 | 1014.5 | |
| 20260508015517 | 46 | 0.0 | 0.0 | 0.00 | 0.03 | 0.00 | 88 | 1014.6 | |
| 20260508014517 | 46 | 0.0 | 0.0 | 0.00 | 0.03 | 0.00 | 88 | 1014.8 | |
| 20260508013517 | 46 | 0.0 | 1.0 | 0.00 | 0.03 | 0.00 | 88 | 1014.7 | |
| 20260508012517 | 46 | 0.0 | 0.0 | 0.00 | 0.03 | 0.00 | 87 | 1014.6 | |
| 20260508011517 | 47 | 0.0 | 0.0 | 0.00 | 0.03 | 0.00 | 87 | 1014.7 | |
| 20260508010517 | 47 | 0.0 | 0.0 | 0.00 | 0.03 | 0.00 | 86 | 1014.7 | |
| 20260508005517 | 47 | 0.0 | 0.0 | 0.00 | 0.03 | 0.00 | 86 | 1014.7 | |
| 20260508004517 | 47 | 0.0 | 0.0 | 0.00 | 0.03 | 0.00 | 86 | 1014.6 | |
| 20260508003517 | 48 | 0.0 | 0.0 | 0.00 | 0.03 | 0.00 | 85 | 1014.7 | |
| 20260508002537 | 48 | 0.0 | 0.0 | 0.00 | 0.03 | 0.00 | 85 | 1014.7 | |
| 20260508001519 | 49 | 0.0 | 0.0 | 0.00 | 0.03 | 0.00 | 84 | 1014.8 | |
| 20260508000517 | 49 | 0.0 | 0.0 | 0.00 | 0.03 | 0.00 | 84 | 1014.8 | |
| 20260507235537 | 49 | 0.0 | 0.0 | 0.00 | 0.03 | 0.00 | 84 | 1014.8 | |
| 20260507234517 | 50 | 0.0 | 0.0 | 0.00 | 0.03 | 0.00 | 83 | 1014.9 | |
| 20260507233537 | 50 | 0.0 | 0.0 | 0.00 | 0.03 | 0.00 | 82 | 1015.0 | |
| 20260507232517 | 50 | 0.0 | 0.0 | 0.00 | 0.03 | 0.00 | 81 | 1015.2 | |
| 20260507231537 | 51 | 0.0 | 0.0 | 0.00 | 0.03 | 0.00 | 80 | 1015.5 | |
| 20260507230517 | 51 | 0.0 | 0.0 | 0.00 | 0.03 | 0.00 | 79 | 1015.4 | |
| 20260507225517 | 52 | 0.0 | 0.0 | 0.00 | 0.03 | 0.00 | 78 | 1015.5 | |
| 20260507224517 | 52 | 0.0 | 0.0 | 0.00 | 0.03 | 0.00 | 78 | 1015.6 | |
| 20260507223517 | 53 | 0.0 | 0.0 | 0.00 | 0.03 | 0.00 | 77 | 1015.6 | |
| 20260507222537 | 53 | 0.0 | 0.0 | 0.00 | 0.03 | 0.00 | 77 | 1015.7 | |
| 20260507221517 | 54 | 0.0 | 0.0 | 0.00 | 0.03 | 0.00 | 77 | 1015.7 | |
| 20260507220517 | 54 | 0.0 | 0.0 | 0.00 | 0.03 | 0.00 | 77 | 1015.6 | |
| 20260507215515 | 54 | 0.0 | 0.0 | 0.00 | 0.03 | 0.03 | 77 | 1015.6 | |
| 20260507214515 | 55 | 0.0 | 1.0 | 0.00 | 0.03 | 0.03 | 77 | 1015.6 | |
| 20260507213515 | 55 | 0.0 | 0.0 | 0.00 | 0.03 | 0.03 | 76 | 1015.6 | |
| 20260507212515 | 55 | 0.0 | 2.0 | 0.00 | 0.03 | 0.03 | 76 | 1015.5 | |
| 20260507211516 | 55 | 0.0 | 2.0 | 0.00 | 0.03 | 0.03 | 76 | 1015.5 | |
| 20260507210536 | 55 | 0.0 | 0.0 | 0.00 | 0.03 | 0.03 | 75 | 1015.4 | |
| 20260507205536 | 56 | 0.0 | 0.0 | 0.00 | 0.03 | 0.03 | 75 | 1015.4 | |
| 20260507204515 | 56 | 0.0 | 1.0 | 0.00 | 0.03 | 0.03 | 74 | 1015.3 | |
| 20260507203516 | 56 | 0.0 | 3.0 | 0.00 | 0.03 | 0.03 | 74 | 1015.3 | |
| 20260507202515 | 56 | 0.0 | 0.0 | 0.00 | 0.03 | 0.03 | 72 | 1015.1 | |
| 20260507201516 | 56 | 0.0 | 0.0 | 0.00 | 0.03 | 0.03 | 72 | 1015.0 | |
| 20260507200516 | 56 | 0.0 | 2.0 | 0.00 | 0.03 | 0.03 | 72 | 1015.0 | |
| 20260507195536 | 57 | 0.0 | 0.0 | 0.00 | 0.03 | 0.03 | 72 | 1014.9 | |
| 20260507194536 | 57 | 0.0 | 0.0 | 0.00 | 0.03 | 0.03 | 71 | 1014.7 | |
| 20260507193516 | 57 | 0.0 | 0.0 | 0.00 | 0.03 | 0.03 | 71 | 1014.8 | |
| 20260507192516 | 57 | 0.0 | 0.0 | 0.00 | 0.03 | 0.03 | 68 | 1014.7 | |
| 20260507191515 | 58 | 0.0 | 0.0 | 0.00 | 0.03 | 0.03 | 68 | 1014.6 | |
| 20260507190535 | 58 | 0.0 | 0.0 | 0.00 | 0.03 | 0.03 | 67 | 1014.5 | |
| 20260507185516 | 58 | 0.0 | 0.0 | 0.00 | 0.03 | 0.03 | 67 | 1014.5 | |
| 20260507184535 | 58 | 0.0 | 0.0 | 0.00 | 0.03 | 0.03 | 66 | 1014.4 | |
| 20260507183515 | 59 | 0.0 | 0.0 | 0.00 | 0.03 | 0.03 | 66 | 1014.1 | |
| 20260507182518 | 59 | 0.0 | 0.0 | 0.00 | 0.03 | 0.03 | 65 | 1014.1 | |
| 20260507181537 | 59 | 0.0 | 0.0 | 0.00 | 0.03 | 0.03 | 65 | 1014.0 | |
| 20260507180518 | 59 | 0.0 | 3.0 | 0.00 | 0.03 | 0.03 | 65 | 1014.0 | |
| 20260507175517 | 59 | 0.0 | 1.0 | 0.00 | 0.03 | 0.03 | 65 | 1013.9 | |
| 20260507174517 | 59 | 0.0 | 0.0 | 0.00 | 0.03 | 0.03 | 64 | 1013.7 | |
| 20260507173517 | 60 | 0.0 | 2.0 | 0.00 | 0.03 | 0.03 | 63 | 1013.7 | |
| 20260507172518 | 60 | 0.0 | 2.0 | 0.00 | 0.03 | 0.03 | 63 | 1013.7 | |
| 20260507171537 | 60 | 0.0 | 2.0 | 0.00 | 0.03 | 0.03 | 62 | 1013.6 | |
| 20260507170516 | 61 | 0.0 | 2.0 | 0.00 | 0.03 | 0.03 | 61 | 1013.7 | |
| 20260507165518 | 61 | 0.0 | 4.0 | 0.00 | 0.03 | 0.03 | 60 | 1013.7 | |
| 20260507164537 | 61 | 0.0 | 3.0 | 0.00 | 0.03 | 0.03 | 62 | 1013.6 | |
| 20260507163517 | 61 | 0.0 | 5.0 | 0.00 | 0.03 | 0.03 | 61 | 1013.5 | |
| 20260507162517 | 61 | 0.0 | 1.0 | 0.00 | 0.03 | 0.03 | 61 | 1013.7 | |
| 20260507161517 | 61 | 0.0 | 3.0 | 0.00 | 0.03 | 0.03 | 60 | 1013.7 | |
| 20260507160517 | 61 | 0.0 | 0.0 | 0.00 | 0.03 | 0.03 | 61 | 1013.5 | |
| 20260507155537 | 61 | 0.0 | 1.0 | 0.00 | 0.03 | 0.03 | 60 | 1013.6 | |
| 20260507154537 | 62 | 0.0 | 2.0 | 0.00 | 0.03 | 0.03 | 59 | 1013.7 | |
| 20260507153518 | 63 | 0.0 | 1.0 | 0.00 | 0.03 | 0.03 | 58 | 1013.7 | |
| 20260507152517 | 62 | 338 | 1.0 | 3.0 | 0.00 | 0.03 | 0.03 | 59 | 1013.6 |
| 20260507151517 | 62 | 338 | 1.0 | 3.0 | 0.00 | 0.03 | 0.03 | 60 | 1013.6 |
| 20260507150517 | 62 | 0.0 | 1.0 | 0.00 | 0.03 | 0.03 | 61 | 1013.6 | |
| 20260507145517 | 62 | 338 | 1.0 | 4.0 | 0.00 | 0.03 | 0.03 | 62 | 1013.6 |
| 20260507144517 | 62 | 338 | 1.0 | 3.0 | 0.00 | 0.03 | 0.03 | 63 | 1013.7 |
| 20260507143517 | 62 | 0.0 | 4.0 | 0.00 | 0.03 | 0.03 | 63 | 1013.7 | |
| 20260507142517 | 62 | 0.0 | 3.0 | 0.00 | 0.04 | 0.03 | 64 | 1013.7 | |
| 20260507141517 | 61 | 0.0 | 3.0 | 0.00 | 0.05 | 0.03 | 63 | 1013.6 | |
| 20260507140517 | 62 | 338 | 1.0 | 4.0 | 0.00 | 0.09 | 0.03 | 63 | 1013.7 |
| 20260507135517 | 62 | 338 | 1.0 | 4.0 | 0.00 | 0.14 | 0.03 | 62 | 1013.8 |
| 20260507134517 | 62 | 338 | 1.0 | 5.0 | 0.00 | 0.17 | 0.03 | 62 | 1013.9 |
| 20260507133517 | 62 | 0.0 | 3.0 | 0.00 | 0.22 | 0.03 | 60 | 1013.8 | |
| 20260507132517 | 63 | 338 | 1.0 | 4.0 | 0.00 | 0.27 | 0.03 | 57 | 1014.0 |
| 20260507131517 | 62 | 315 | 1.0 | 7.0 | 0.00 | 0.30 | 0.03 | 58 | 1013.9 |
| 20260507130517 | 62 | 315 | 2.0 | 8.0 | 0.00 | 0.30 | 0.03 | 58 | 1013.9 |
| 20260507125517 | 63 | 315 | 1.0 | 3.0 | 0.00 | 0.30 | 0.03 | 62 | 1014.1 |
| 20260507124518 | 62 | 315 | 1.0 | 6.0 | 0.00 | 0.30 | 0.03 | 63 | 1014.1 |
| 20260507123537 | 62 | 0.0 | 3.0 | 0.00 | 0.30 | 0.03 | 64 | 1013.9 | |
| 20260507122537 | 62 | 0.0 | 3.0 | 0.00 | 0.30 | 0.03 | 69 | 1013.9 | |
| 20260507121557 | 60 | 0.0 | 2.0 | 0.00 | 0.30 | 0.03 | 71 | 1013.9 | |
| 20260507120517 | 60 | 293 | 1.0 | 3.0 | 0.00 | 0.30 | 0.03 | 76 | 1014.0 |
| 20260507115517 | 58 | 293 | 1.0 | 5.0 | 0.00 | 0.30 | 0.03 | 75 | 1013.9 |
| 20260507114537 | 58 | 293 | 1.0 | 6.0 | 0.00 | 0.30 | 0.03 | 76 | 1014.0 |
| 20260507113517 | 59 | 293 | 1.0 | 4.0 | 0.00 | 0.30 | 0.03 | 75 | 1014.1 |
| 20260507112517 | 59 | 0.0 | 2.0 | 0.00 | 0.30 | 0.03 | 72 | 1014.2 | |
| 20260507111517 | 59 | 0.0 | 3.0 | 0.00 | 0.30 | 0.03 | 73 | 1014.2 | |
| 20260507110517 | 58 | 293 | 1.0 | 4.0 | 0.00 | 0.30 | 0.03 | 77 | 1014.4 |
| 20260507105557 | 57 | 0.0 | 4.0 | 0.00 | 0.30 | 0.03 | 77 | 1014.3 |